Cook, MN

11:24 PM CST on February 06, 2016 (GMT -0600)
Cook Municipal

Weather History for KCQM - November, 2013

Change the Weather History Date:

Thursday, November 14, 2013

  Actual Average Record
Temperature  
Mean Temperature 30 °F -  
Max Temperature 35 °F 33 °F 55 °F (2001)
Min Temperature 26 °F 20 °F -7 °F (1996)
Degree Days  
Heating Degree Days 34    
Moisture  
Dew Point 28 °F    
Average Humidity 85    
Maximum Humidity 100    
Minimum Humidity 70    
Precipitation  
Precipitation 0.00 in - - ()
Sea Level Pressure  
Sea Level Pressure 29.74 in    
Wind  
Wind Speed 0 mph (NW)    
Max Wind Speed 6 mph    
Max Gust Speed -    
Visibility 10 miles    
Events Snow    
Averages and records for this station are not official NWS values.
T = Trace of Precipitation, MM = Missing Value Source: NWS Daily Summary

Daily Weather History Graph

Daily Weather History Graph

Search for Another Location

Airport or City:

Trip Planner

Search our weather history database for the weather conditions in past years. The results will help you decide how hot, cold, wet, or windy it might be!

Date:

Astronomy

Nov. 14, 2013 Rise Set
Actual Time 7:15 AM CST 4:34 PM CST
Civil Twilight 6:41 AM CST 5:08 PM CST
Nautical Twilight 6:04 AM CST 5:45 PM CST
Astronomical Twilight 5:27 AM CST 6:22 PM CST
Moon 3:06 PM CST (11/14) 3:59 AM CST (11/14)
Length of Visible Light 10h 26m
Length of Day
9h 18m
Waxing Gibbous, 92% of the Moon is Illuminated
Nov 14
Waxing Gibbous
Nov 17
Full
Nov 25
Last Quarter
Dec 2
New
Dec 9
First Quarter

Hourly Weather History & Observations

Time (CST) Temp. Windchill Dew Point Humidity Pressure Visibility Wind Dir Wind Speed Gust Speed Precip Events Conditions
12:16 AM 35.6 °F - 30.2 °F 81% 29.75 in 10.0 mi Calm Calm - N/A   Clear
12:36 AM 35.6 °F - 30.2 °F 81% 29.74 in 10.0 mi Calm Calm - N/A   Clear
12:57 AM 33.8 °F - 30.2 °F 87% 29.74 in 10.0 mi Calm Calm - N/A   Clear
1:16 AM 33.8 °F - 30.2 °F 87% 29.74 in 10.0 mi Calm Calm - N/A   Clear
1:36 AM 33.8 °F - 30.2 °F 87% 29.74 in 10.0 mi Calm Calm - N/A   Clear
1:57 AM 32.0 °F - 28.4 °F 87% 29.74 in 10.0 mi Calm Calm - N/A   Clear
2:16 AM 33.8 °F - 30.2 °F 87% 29.75 in 10.0 mi Calm Calm - N/A   Clear
2:36 AM 28.4 °F - 26.6 °F 93% 29.74 in 10.0 mi Calm Calm - N/A   Clear
2:56 AM 30.2 °F - 28.4 °F 93% 29.74 in 10.0 mi Calm Calm - N/A   Clear
3:16 AM 32.0 °F - 28.4 °F 87% 29.74 in 10.0 mi Calm Calm - N/A   Clear
3:37 AM 30.2 °F - 26.6 °F 86% 29.74 in 10.0 mi Calm Calm - N/A   Clear
3:56 AM 30.2 °F - 28.4 °F 93% 29.74 in 10.0 mi Calm Calm - N/A   Clear
4:16 AM 30.2 °F - 28.4 °F 93% 29.75 in 10.0 mi Calm Calm - N/A   Clear
4:37 AM 26.6 °F - 26.6 °F 100% 29.75 in 10.0 mi Calm Calm - N/A   Clear
4:56 AM 30.2 °F - 28.4 °F 93% 29.75 in 10.0 mi Calm Calm - N/A   Scattered Clouds
5:16 AM 30.2 °F - 28.4 °F 93% 29.74 in 10.0 mi Calm Calm - N/A   Scattered Clouds
5:37 AM 30.2 °F - 28.4 °F 93% 29.76 in 10.0 mi Calm Calm - N/A   Scattered Clouds
5:56 AM 30.2 °F - 28.4 °F 93% 29.75 in 10.0 mi Calm Calm - N/A   Mostly Cloudy
6:17 AM 30.2 °F - 28.4 °F 93% 29.75 in 10.0 mi Calm Calm - N/A   Overcast
6:36 AM 30.2 °F - 28.4 °F 93% 29.75 in 10.0 mi Calm Calm - N/A   Scattered Clouds
6:57 AM 28.4 °F - 28.4 °F 100% 29.74 in 10.0 mi Calm Calm - N/A   Mostly Cloudy
7:17 AM 28.4 °F - 28.4 °F 100% 29.75 in 10.0 mi Calm Calm - N/A   Overcast
7:36 AM 30.2 °F - 28.4 °F 93% 29.75 in 10.0 mi Calm Calm - N/A   Overcast
7:57 AM 28.4 °F - 28.4 °F 100% 29.76 in 10.0 mi Calm Calm - N/A   Overcast
8:16 AM 30.2 °F - 28.4 °F 93% 29.77 in 10.0 mi Calm Calm - N/A   Mostly Cloudy
8:36 AM 30.2 °F - 28.4 °F 93% 29.77 in 10.0 mi Calm Calm - N/A   Scattered Clouds
8:57 AM 30.2 °F - 28.4 °F 93% 29.78 in 10.0 mi Calm Calm - N/A   Scattered Clouds
9:16 AM 32.0 °F - 28.4 °F 87% 29.78 in 10.0 mi Calm Calm - N/A   Scattered Clouds
9:36 AM 32.0 °F - 28.4 °F 87% 29.78 in 10.0 mi Calm Calm - N/A   Mostly Cloudy
9:57 AM 33.8 °F - 28.4 °F 81% 29.79 in 10.0 mi Calm Calm - N/A   Overcast
10:16 AM 33.8 °F - 28.4 °F 81% 29.78 in 10.0 mi Calm Calm - N/A   Mostly Cloudy
10:36 AM 35.6 °F - 28.4 °F 75% 29.77 in 10.0 mi Calm Calm - N/A   Scattered Clouds
10:57 AM 35.6 °F 32.8 °F 28.4 °F 75% 29.77 in 10.0 mi North 3.5 mph - N/A   Scattered Clouds
11:16 AM 35.6 °F 31.7 °F 28.4 °F 75% 29.76 in 10.0 mi NNE 4.6 mph - N/A   Mostly Cloudy
11:36 AM 35.6 °F 32.8 °F 26.6 °F 70% 29.75 in 10.0 mi NNE 3.5 mph - N/A   Overcast
11:57 AM 35.6 °F 32.8 °F 26.6 °F 70% 29.74 in 10.0 mi ENE 3.5 mph - N/A   Overcast
12:16 PM 35.6 °F 32.8 °F 26.6 °F 70% 29.74 in 10.0 mi NE 3.5 mph - N/A   Overcast
12:36 PM 35.6 °F - 26.6 °F 70% 29.75 in 10.0 mi Calm Calm - N/A   Overcast
12:57 PM 35.6 °F - 26.6 °F 70% 29.75 in 10.0 mi Calm Calm - N/A   Overcast
1:16 PM 35.6 °F - 26.6 °F 70% 29.74 in 7.0 mi Calm Calm - N/A Snow Light Snow
1:36 PM 35.6 °F - 28.4 °F 75% 29.73 in 10.0 mi Calm Calm - N/A   Mostly Cloudy
1:57 PM 35.6 °F - 28.4 °F 75% 29.72 in 10.0 mi Calm Calm - N/A   Mostly Cloudy
2:16 PM 35.6 °F - 26.6 °F 70% 29.72 in 10.0 mi Calm Calm - N/A   Overcast
2:36 PM 35.6 °F - 28.4 °F 75% 29.72 in 10.0 mi Calm Calm - N/A   Overcast
2:57 PM 35.6 °F - 28.4 °F 75% 29.72 in 10.0 mi Calm Calm - N/A   Overcast
3:16 PM 35.6 °F - 28.4 °F 75% 29.73 in 10.0 mi Calm Calm - N/A   Overcast
3:36 PM 35.6 °F - 28.4 °F 75% 29.73 in 10.0 mi Calm Calm - N/A   Overcast
3:57 PM 35.6 °F - 28.4 °F 75% 29.74 in 10.0 mi Calm Calm - N/A   Overcast
4:16 PM 35.6 °F - 28.4 °F 75% 29.74 in 10.0 mi Calm Calm - N/A   Overcast
4:36 PM 33.8 °F - 28.4 °F 81% 29.73 in 10.0 mi Calm Calm - N/A   Overcast
4:57 PM 33.8 °F - 28.4 °F 81% 29.73 in 10.0 mi Calm Calm - N/A   Overcast
5:16 PM 33.8 °F - 28.4 °F 81% 29.73 in 10.0 mi Calm Calm - N/A   Overcast
5:37 PM 33.8 °F - 28.4 °F 81% 29.73 in 10.0 mi Calm Calm - N/A   Overcast
5:57 PM 30.2 °F - 28.4 °F 93% 29.74 in 10.0 mi Calm Calm - N/A   Mostly Cloudy
6:16 PM 30.2 °F - 28.4 °F 93% 29.73 in 10.0 mi Calm Calm - N/A   Mostly Cloudy
6:37 PM 30.2 °F - 28.4 °F 93% 29.73 in 10.0 mi Calm Calm - N/A   Overcast
6:57 PM 30.2 °F - 28.4 °F 93% 29.73 in 10.0 mi Calm Calm - N/A   Overcast
7:16 PM 30.2 °F - 28.4 °F 93% 29.73 in 10.0 mi Calm Calm - N/A   Overcast
7:37 PM 30.2 °F - 28.4 °F 93% 29.73 in 10.0 mi Calm Calm - N/A   Overcast
7:57 PM 32.0 °F - 28.4 °F 87% 29.73 in 10.0 mi Calm Calm - N/A   Overcast
8:16 PM 30.2 °F - 28.4 °F 93% 29.73 in 10.0 mi Calm Calm - N/A   Overcast
8:37 PM 32.0 °F - 28.4 °F 87% 29.73 in 10.0 mi Calm Calm - N/A   Overcast
8:56 PM 33.8 °F - 28.4 °F 81% 29.73 in 10.0 mi Calm Calm - N/A   Overcast
9:17 PM 33.8 °F - 28.4 °F 81% 29.73 in 10.0 mi Calm Calm - N/A   Overcast
9:37 PM 33.8 °F - 28.4 °F 81% 29.72 in 10.0 mi Calm Calm - N/A   Overcast
9:56 PM 33.8 °F - 28.4 °F 81% 29.71 in 10.0 mi Calm Calm - N/A   Overcast
10:17 PM 33.8 °F - 28.4 °F 81% 29.71 in 10.0 mi Calm Calm - N/A   Overcast
10:37 PM 35.6 °F 31.7 °F 28.4 °F 75% 29.70 in 10.0 mi South 4.6 mph - N/A   Overcast
10:56 PM 35.6 °F 30.7 °F 28.4 °F 75% 29.69 in 10.0 mi SSW 5.8 mph - N/A   Overcast
11:17 PM 35.6 °F 30.7 °F 30.2 °F 81% 29.71 in 7.0 mi WSW 5.8 mph - N/A   Drizzle
11:37 PM 33.8 °F 28.6 °F 30.2 °F 87% 29.71 in 4.0 mi WSW 5.8 mph - N/A Snow Light Snow
11:56 PM 33.8 °F 29.6 °F 32.0 °F 93% 29.71 in 3.0 mi SW 4.6 mph - N/A Snow Light Snow